,,,PA_Meas_PMT16A,,PR_Meas_QMR101_102,,RH_Meas_QMH101,,SR_Meas_QMS101,,TA_Meas_QMH101,,GenWind,,GenWind,
date,time,status,PA,status,PR,status,RH,status,SR,status,TA,status,DirAvg,status,SpdAvg,
2009-01-21, 00:00:04,VALID,1010.65,VALID,0,VALID,92.7825,VALID,0.105969,VALID,24.1793,VALID,326,VALID,0.524609,
2009-01-21, 00:01:04,VALID,1010.63,VALID,0,VALID,92.7749,VALID,0,VALID,24.1793,VALID,295,VALID,0.380469,
2009-01-21, 00:02:04,VALID,1010.61,VALID,0,VALID,92.691,VALID,0,VALID,24.1599,VALID,319,VALID,1.14063,
2009-01-21, 00:03:04,VALID,1010.63,VALID,0,VALID,92.6529,VALID,0,VALID,24.1599,VALID,289,VALID,0.228125,
2009-01-21, 00:04:04,VALID,1010.64,VALID,0,VALID,92.6682,VALID,0,VALID,24.1599,VALID,280,VALID,0.542188,
2009-01-21, 00:05:04,VALID,1010.67,VALID,0,VALID,92.6834,VALID,0.105969,VALID,24.1404,VALID,276,VALID,0.0488281,
2009-01-21, 00:06:04,VALID,1010.66,VALID,0,VALID,92.7368,VALID,0,VALID,24.1404,VALID,291,VALID,0.432031,
2009-01-21, 00:07:04,VALID,1010.64,VALID,0,VALID,92.5995,VALID,0.105969,VALID,24.1404,VALID,278,VALID,0.448828,
2009-01-21, 00:08:04,VALID,1010.7,VALID,0,VALID,92.6224,VALID,0.105969,VALID,24.1404,VALID,268,VALID,0.0183594,
2009-01-21, 00:09:04,VALID,1010.64,VALID,0,VALID,92.6453,VALID,0.105969,VALID,24.1404,VALID,304,VALID,0.306641,
2009-01-21, 00:10:04,VALID,1010.64,VALID,0,VALID,92.569,VALID,0,VALID,24.1209,VALID,301,VALID,0.144141,
2009-01-21, 00:11:04,VALID,1010.62,VALID,0,VALID,92.5614,VALID,0,VALID,24.1209,VALID,1,VALID,0.487891,
2009-01-21, 00:12:04,VALID,1010.57,VALID,0,VALID,92.7139,VALID,0,VALID,24.0819,VALID,353,VALID,0.210156,
2009-01-21, 00:13:04,VALID,1010.52,VALID,0,VALID,92.8054,VALID,0.105969,VALID,24.0624,VALID,339,VALID,0.292969,
2009-01-21, 00:14:04,VALID,1010.5,VALID,0,VALID,92.9046,VALID,0,VALID,24.0429,VALID,328,VALID,0.353125,
2009-01-21, 00:15:04,VALID,1010.49,VALID,0,VALID,92.9884,VALID,0,VALID,24.0235,VALID,297,VALID,0.685156,
2009-01-21, 00:16:04,VALID,1010.47,VALID,0,VALID,92.9884,VALID,0,VALID,24.0235,VALID,301,VALID,0.276563,
2009-01-21, 00:17:04,VALID,1010.45,VALID,0,VALID,93.0418,VALID,0,VALID,24.004,VALID,313,VALID,0.325781,
2009-01-21, 00:18:04,VALID,1010.46,VALID,0,VALID,93.1715,VALID,0.105969,VALID,23.9632,VALID,313,VALID,0.00351562,
2009-01-21, 00:19:04,VALID,1010.46,VALID,0,VALID,93.3621,VALID,0,VALID,23.965,VALID,313,VALID,0.0203125,
2009-01-21, 00:20:04,VALID,1010.47,VALID,0,VALID,93.4612,VALID,0.105969,VALID,23.926,VALID,314,VALID,0.174219,
2009-01-21, 00:21:04,VALID,1010.46,VALID,0,VALID,93.5146,VALID,0.105969,VALID,23.8871,VALID,314,VALID,0.0179687,
2009-01-21, 00:22:04,VALID,1010.47,VALID,0,VALID,93.6214,VALID,0,VALID,23.8676,VALID,314,VALID,0,
2009-01-21, 00:23:04,VALID,1010.46,VALID,0,VALID,93.7281,VALID,0,VALID,23.8481,VALID,315,VALID,0.156641,
2009-01-21, 00:24:04,VALID,1010.46,VALID,0,VALID,93.7663,VALID,0,VALID,23.8286,VALID,322,VALID,0.242188,
2009-01-21, 00:25:04,VALID,1010.45,VALID,0,VALID,93.7739,VALID,0,VALID,23.8286,VALID,315,VALID,0.276172,
2009-01-21, 00:26:04,VALID,1010.44,VALID,0,VALID,93.7968,VALID,0,VALID,23.8286,VALID,320,VALID,0.00546875,
2009-01-21, 00:27:04,VALID,1010.4,VALID,0,VALID,93.8044,VALID,0,VALID,23.8286,VALID,320,VALID,0.000390625,
2009-01-21, 00:28:04,VALID,1010.42,VALID,0,VALID,93.8196,VALID,0,VALID,23.8286,VALID,309,VALID,0.293359,
2009-01-21, 00:29:04,VALID,1010.41,VALID,0,VALID,93.7358,VALID,0,VALID,23.8073,VALID,309,VALID,0.328906,
2009-01-21, 00:30:04,VALID,1010.38,VALID,0,VALID,93.8425,VALID,0,VALID,23.8091,VALID,308,VALID,0.162891,
2009-01-21, 00:31:04,VALID,1010.36,VALID,0,VALID,93.9188,VALID,0,VALID,23.7896,VALID,308,VALID,0.0121094,
2009-01-21, 00:32:04,VALID,1010.34,VALID,0,VALID,93.9645,VALID,0.105969,VALID,23.7896,VALID,308,VALID,0,
2009-01-21, 00:33:04,VALID,1010.33,VALID,0,VALID,94.0255,VALID,0,VALID,23.7507,VALID,310,VALID,0.278125,
2009-01-21, 00:34:04,VALID,1010.3,VALID,0,VALID,94.0637,VALID,0,VALID,23.7294,VALID,314,VALID,0.33125,
2009-01-21, 00:35:04,VALID,1010.3,VALID,0,VALID,94.0255,VALID,0.105969,VALID,23.7507,VALID,329,VALID,0,
2009-01-21, 00:36:04,VALID,1010.23,VALID,0,VALID,94.0637,VALID,0.105969,VALID,23.7312,VALID,329,VALID,0.0015625,
2009-01-21, 00:37:04,VALID,1010.23,VALID,0,VALID,94.0942,VALID,0.105969,VALID,23.7099,VALID,330,VALID,0.334766,
2009-01-21, 00:38:04,VALID,1010.2,VALID,0,VALID,94.1171,VALID,0,VALID,23.7117,VALID,330,VALID,0.321484,
2009-01-21, 00:39:04,VALID,1010.19,VALID,0,VALID,94.1399,VALID,0.105969,VALID,23.6922,VALID,334,VALID,0.357422,
2009-01-21, 00:40:04,VALID,1010.15,VALID,0,VALID,94.1628,VALID,0.105969,VALID,23.6922,VALID,334,VALID,0.0839844,
2009-01-21, 00:41:04,VALID,1010.13,VALID,0,VALID,94.1171,VALID,0,VALID,23.694,VALID,324,VALID,0.491406,
2009-01-21, 00:42:04,VALID,1010.14,VALID,0,VALID,94.1704,VALID,0,VALID,23.694,VALID,314,VALID,0.046875,
2009-01-21, 00:43:04,VALID,1010.12,VALID,0,VALID,94.2238,VALID,0,VALID,23.694,VALID,313,VALID,0.361719,
2009-01-21, 00:44:04,VALID,1010.09,VALID,0,VALID,94.2543,VALID,0,VALID,23.694,VALID,308,VALID,0.704297,
2009-01-21, 00:45:04,VALID,1010.09,VALID,0,VALID,94.2467,VALID,0,VALID,23.694,VALID,286,VALID,0.225781,
2009-01-21, 00:46:04,VALID,1010.09,VALID,0,VALID,94.2086,VALID,0,VALID,23.6745,VALID,323,VALID,0.329297,
2009-01-21, 00:47:04,VALID,1010.1,VALID,0,VALID,94.1933,VALID,0,VALID,23.694,VALID,322,VALID,0.132031,
2009-01-21, 00:48:04,VALID,1010.1,VALID,0,VALID,94.1933,VALID,0,VALID,23.6532,VALID,335,VALID,0.374219,
2009-01-21, 00:49:04,VALID,1010.09,VALID,0,VALID,94.2391,VALID,0,VALID,23.655,VALID,332,VALID,0.318359,
2009-01-21, 00:50:04,VALID,1010.09,VALID,0,VALID,94.2848,VALID,0,VALID,23.6356,VALID,2,VALID,0.510156,
2009-01-21, 00:51:04,VALID,1010.1,VALID,0,VALID,94.3153,VALID,0,VALID,23.6161,VALID,352,VALID,0.216797,
2009-01-21, 00:52:04,VALID,1010.1,VALID,0,VALID,94.3687,VALID,0,VALID,23.5966,VALID,1,VALID,0.225781,
2009-01-21, 00:53:04,VALID,1010.08,VALID,0,VALID,94.4145,VALID,0,VALID,23.5771,VALID,1,VALID,0,
2009-01-21, 00:54:04,VALID,1010.1,VALID,0,VALID,94.3992,VALID,0,VALID,23.5771,VALID,1,VALID,0.0992187,
2009-01-21, 00:55:04,VALID,1010.07,VALID,0,VALID,94.5212,VALID,0,VALID,23.5558,VALID,318,VALID,0.165625,
2009-01-21, 00:56:04,VALID,1010.07,VALID,0,VALID,94.6432,VALID,0,VALID,23.5558,VALID,318,VALID,0,
2009-01-21, 00:57:04,VALID,1010.1,VALID,0,VALID,94.689,VALID,0,VALID,23.5558,VALID,308,VALID,0.187109,
2009-01-21, 00:58:04,VALID,1010.08,VALID,0,VALID,94.6737,VALID,0,VALID,23.5576,VALID,305,VALID,0,
2009-01-21, 00:59:04,VALID,1010.09,VALID,0,VALID,94.7119,VALID,0,VALID,23.5576,VALID,305,VALID,0,
2009-01-21, 01:00:04,VALID,1010.08,VALID,0,VALID,94.6966,VALID,0,VALID,23.5363,VALID,305,VALID,0,
2009-01-21, 01:01:04,VALID,1010.1,VALID,0,VALID,94.7271,VALID,0,VALID,23.5381,VALID,305,VALID,0,
2009-01-21, 01:02:04,VALID,1010.08,VALID,0,VALID,94.7424,VALID,0,VALID,23.5381,VALID,305,VALID,0.26875,
2009-01-21, 01:03:04,VALID,1010.09,VALID,0,VALID,94.7881,VALID,0,VALID,23.4992,VALID,305,VALID,0,
2009-01-21, 01:04:04,VALID,1010.12,VALID,0,VALID,94.7957,VALID,0,VALID,23.4992,VALID,305,VALID,0,
2009-01-21, 01:05:04,VALID,1010.11,VALID,0,VALID,94.7729,VALID,0,VALID,23.4797,VALID,305,VALID,0.0746094,
2009-01-21, 01:06:04,VALID,1010.1,VALID,0,VALID,94.8186,VALID,0,VALID,23.4602,VALID,305,VALID,0,
2009-01-21, 01:07:04,VALID,1010.1,VALID,0,VALID,94.9559,VALID,0,VALID,23.4389,VALID,305,VALID,0.151562,
2009-01-21, 01:08:04,VALID,1010.1,VALID,0,VALID,94.994,VALID,0,VALID,23.4389,VALID,305,VALID,0.141016,
2009-01-21, 01:09:04,VALID,1010.1,VALID,0,VALID,95.0169,VALID,0,VALID,23.4389,VALID,305,VALID,0.222656,
2009-01-21, 01:10:04,VALID,1010.08,VALID,0,VALID,95.0169,VALID,0,VALID,23.4407,VALID,305,VALID,0.194922,
2009-01-21, 01:11:04,VALID,1010.08,VALID,0,VALID,95.055,VALID,0,VALID,23.4194,VALID,305,VALID,0,
2009-01-21, 01:12:04,VALID,1010.06,VALID,0,VALID,95.0855,VALID,0,VALID,23.4212,VALID,328,VALID,0.466797,
2009-01-21, 01:13:04,VALID,1010.06,VALID,0,VALID,95.177,VALID,0,VALID,23.4,VALID,330,VALID,0.350391,
2009-01-21, 01:14:04,VALID,1010.04,VALID,0,VALID,95.2228,VALID,0,VALID,23.4017,VALID,330,VALID,0,
2009-01-21, 01:15:04,VALID,1010.02,VALID,0,VALID,95.2457,VALID,0,VALID,23.3823,VALID,330,VALID,0.232812,
2009-01-21, 01:16:04,VALID,1010.01,VALID,0,VALID,95.2762,VALID,0,VALID,23.361,VALID,333,VALID,0.367969,
2009-01-21, 01:17:04,VALID,1010,VALID,0,VALID,95.3067,VALID,0,VALID,23.3823,VALID,335,VALID,0.298828,
2009-01-21, 01:18:04,VALID,1009.96,VALID,0,VALID,95.3295,VALID,0,VALID,23.3415,VALID,335,VALID,0.174609,
2009-01-21, 01:19:04,VALID,1009.95,VALID,0,VALID,95.4439,VALID,0,VALID,23.3238,VALID,335,VALID,0.215234,
2009-01-21, 01:20:04,VALID,1009.91,VALID,0,VALID,95.5278,VALID,0.105969,VALID,23.3026,VALID,335,VALID,0,
2009-01-21, 01:21:04,VALID,1009.91,VALID,0,VALID,95.5736,VALID,0,VALID,23.2848,VALID,335,VALID,0,
2009-01-21, 01:22:04,VALID,1009.89,VALID,0,VALID,95.5964,VALID,0,VALID,23.2654,VALID,335,VALID,0,
2009-01-21, 01:23:04,VALID,1009.89,VALID,0,VALID,95.6041,VALID,0,VALID,23.2246,VALID,335,VALID,0,
2009-01-21, 01:24:04,VALID,1009.89,VALID,0,VALID,95.6956,VALID,0,VALID,23.2051,VALID,337,VALID,0,
2009-01-21, 01:25:04,VALID,1009.88,VALID,0,VALID,95.7795,VALID,0,VALID,23.1857,VALID,14,VALID,0,
2009-01-21, 01:26:04,VALID,1009.86,VALID,0,VALID,95.8328,VALID,0,VALID,23.1662,VALID,24,VALID,0,
2009-01-21, 01:27:04,VALID,1009.87,VALID,0,VALID,95.8786,VALID,0,VALID,23.1467,VALID,24,VALID,0,
2009-01-21, 01:28:04,VALID,1009.83,VALID,0,VALID,95.993,VALID,0,VALID,23.1485,VALID,24,VALID,0,
2009-01-21, 01:29:04,VALID,1009.82,VALID,0,VALID,96.0387,VALID,0.105969,VALID,23.0883,VALID,24,VALID,0,
2009-01-21, 01:30:04,VALID,1009.79,VALID,0,VALID,96.115,VALID,0,VALID,23.129,VALID,24,VALID,0,
2009-01-21, 01:31:04,VALID,1009.78,VALID,0,VALID,96.1684,VALID,0,VALID,23.1077,VALID,24,VALID,0,
2009-01-21, 01:32:04,VALID,1009.79,VALID,0,VALID,96.1913,VALID,0,VALID,23.0883,VALID,18,VALID,0,
2009-01-21, 01:33:04,VALID,1009.77,VALID,0,VALID,96.2141,VALID,0,VALID,23.1095,VALID,16,VALID,0,
2009-01-21, 01:34:04,VALID,1009.78,VALID,0,VALID,96.3514,VALID,0,VALID,23.0493,VALID,16,VALID,0,
2009-01-21, 01:35:04,VALID,1009.77,VALID,0,VALID,96.3819,VALID,0.105969,VALID,23.0298,VALID,16,VALID,0,
2009-01-21, 01:36:04,VALID,1009.75,VALID,0,VALID,96.4277,VALID,0,VALID,23.0103,VALID,16,VALID,0,
2009-01-21, 01:37:04,VALID,1009.77,VALID,0,VALID,96.42,VALID,0,VALID,23.0121,VALID,16,VALID,0,
2009-01-21, 01:38:04,VALID,1009.75,VALID,0,VALID,96.4734,VALID,0,VALID,22.9714,VALID,16,VALID,0,
2009-01-21, 01:39:04,VALID,1009.75,VALID,0,VALID,96.5192,VALID,0,VALID,22.9519,VALID,16,VALID,0,
2009-01-21, 01:40:04,VALID,1009.75,VALID,0,VALID,96.5573,VALID,0,VALID,22.9129,VALID,16,VALID,0,
2009-01-21, 01:41:04,VALID,1009.7,VALID,0,VALID,96.6107,VALID,0,VALID,22.9342,VALID,16,VALID,0,
2009-01-21, 01:42:04,VALID,1009.7,VALID,0,VALID,96.6793,VALID,0,VALID,22.9342,VALID,16,VALID,0,
2009-01-21, 01:43:04,VALID,1009.67,VALID,0,VALID,96.6946,VALID,0,VALID,22.9147,VALID,16,VALID,0,
2009-01-21, 01:44:04,VALID,1009.67,VALID,0,VALID,96.7403,VALID,0,VALID,22.9147,VALID,16,VALID,0,
2009-01-21, 01:45:04,VALID,1009.63,VALID,0,VALID,96.7937,VALID,0,VALID,22.8952,VALID,16,VALID,0,
2009-01-21, 01:46:04,VALID,1009.61,VALID,0,VALID,96.8699,VALID,0,VALID,22.8935,VALID,15,VALID,0.230859,
2009-01-21, 01:47:04,VALID,1009.59,VALID,0,VALID,96.9081,VALID,0,VALID,22.9342,VALID,354,VALID,0.366406,
2009-01-21, 01:48:04,VALID,1009.56,VALID,0,VALID,96.9691,VALID,0,VALID,22.9324,VALID,359,VALID,0.423438,
2009-01-21, 01:49:04,VALID,1009.56,VALID,0,VALID,96.9767,VALID,0,VALID,22.9536,VALID,360,VALID,0.210547,
2009-01-21, 01:50:04,VALID,1009.55,VALID,0,VALID,96.9538,VALID,0,VALID,22.9536,VALID,360,VALID,0.255859,
2009-01-21, 01:51:04,VALID,1009.53,VALID,0,VALID,96.9233,VALID,0,VALID,22.8952,VALID,360,VALID,0,
2009-01-21, 01:52:04,VALID,1009.55,VALID,0,VALID,96.8776,VALID,0,VALID,22.874,VALID,360,VALID,0.0238281,
2009-01-21, 01:53:04,VALID,1009.54,VALID,0,VALID,96.8394,VALID,0,VALID,22.8545,VALID,360,VALID,0.230078,
2009-01-21, 01:54:04,VALID,1009.54,VALID,0,VALID,96.8318,VALID,0,VALID,22.8757,VALID,360,VALID,0.203516,
2009-01-21, 01:55:04,VALID,1009.53,VALID,0,VALID,96.8776,VALID,0,VALID,22.8562,VALID,10,VALID,0.0195313,
2009-01-21, 01:56:04,VALID,1009.53,VALID,0,VALID,96.8699,VALID,0,VALID,22.8368,VALID,10,VALID,0,
2009-01-21, 01:57:04,VALID,1009.52,VALID,0,VALID,96.8928,VALID,0,VALID,22.8562,VALID,10,VALID,0,
2009-01-21, 01:58:04,VALID,1009.52,VALID,0,VALID,96.8547,VALID,0,VALID,22.8368,VALID,10,VALID,0,
2009-01-21, 01:59:04,VALID,1009.55,VALID,0,VALID,96.8776,VALID,0,VALID,22.7961,VALID,10,VALID,0,
2009-01-21, 02:00:04,VALID,1009.54,VALID,0,VALID,96.931,VALID,0,VALID,22.7766,VALID,10,VALID,0,
2009-01-21, 02:01:04,VALID,1009.53,VALID,0,VALID,96.9462,VALID,0,VALID,22.7766,VALID,10,VALID,0,
2009-01-21, 02:02:04,VALID,1009.52,VALID,0,VALID,96.9005,VALID,0,VALID,22.7978,VALID,10,VALID,0,
2009-01-21, 02:03:04,VALID,1009.51,VALID,0,VALID,96.9233,VALID,0,VALID,22.7571,VALID,10,VALID,0,
2009-01-21, 02:04:04,VALID,1009.5,VALID,0,VALID,97.0377,VALID,0,VALID,22.7766,VALID,10,VALID,0,
2009-01-21, 02:05:04,VALID,1009.5,VALID,0,VALID,97.0682,VALID,0,VALID,22.7588,VALID,10,VALID,0,
2009-01-21, 02:06:04,VALID,1009.46,VALID,0,VALID,97.0682,VALID,0,VALID,22.7588,VALID,10,VALID,0,
2009-01-21, 02:07:04,VALID,1009.44,VALID,0,VALID,97.0911,VALID,0,VALID,22.7394,VALID,10,VALID,0,
2009-01-21, 02:08:04,VALID,1009.41,VALID,0,VALID,97.1063,VALID,0,VALID,22.7394,VALID,10,VALID,0,
2009-01-21, 02:09:04,VALID,1009.37,VALID,0,VALID,97.1368,VALID,0,VALID,22.7199,VALID,10,VALID,0,
2009-01-21, 02:10:04,VALID,1009.39,VALID,0,VALID,97.1674,VALID,0,VALID,22.7394,VALID,10,VALID,0,
2009-01-21, 02:11:04,VALID,1009.36,VALID,0,VALID,97.236,VALID,0,VALID,22.7588,VALID,352,VALID,0,
2009-01-21, 02:12:04,VALID,1009.33,VALID,0,VALID,97.2817,VALID,0,VALID,22.7783,VALID,336,VALID,0,
2009-01-21, 02:13:04,VALID,1009.35,VALID,0,VALID,97.3122,VALID,0,VALID,22.7766,VALID,336,VALID,0,
2009-01-21, 02:14:04,VALID,1009.34,VALID,0,VALID,97.3351,VALID,0,VALID,22.7783,VALID,336,VALID,0,
2009-01-21, 02:15:04,VALID,1009.35,VALID,0,VALID,97.3046,VALID,0,VALID,22.7783,VALID,336,VALID,0,
2009-01-21, 02:16:04,VALID,1009.35,VALID,0,VALID,97.297,VALID,0,VALID,22.7783,VALID,336,VALID,0,
2009-01-21, 02:17:04,VALID,1009.34,VALID,0,VALID,97.2817,VALID,0,VALID,22.7376,VALID,336,VALID,0,
2009-01-21, 02:18:04,VALID,1009.32,VALID,0,VALID,97.2741,VALID,0,VALID,22.7588,VALID,13,VALID,0,
2009-01-21, 02:19:04,VALID,1009.36,VALID,0,VALID,97.2512,VALID,0,VALID,22.7588,VALID,37,VALID,0.2375,
2009-01-21, 02:20:04,VALID,1009.37,VALID,0,VALID,97.2207,VALID,0,VALID,22.6987,VALID,81,VALID,0.745703,
2009-01-21, 02:21:04,VALID,1009.35,VALID,0,VALID,97.1521,VALID,0,VALID,22.6792,VALID,85,VALID,0.801172,
2009-01-21, 02:22:04,VALID,1009.36,VALID,0,VALID,97.2131,VALID,0,VALID,22.6987,VALID,86,VALID,0.821875,
2009-01-21, 02:23:04,VALID,1009.38,VALID,0,VALID,97.2284,VALID,0,VALID,22.6792,VALID,86,VALID,0.737109,
2009-01-21, 02:24:04,VALID,1009.37,VALID,0,VALID,97.2131,VALID,0,VALID,22.7004,VALID,86,VALID,0.324219,
2009-01-21, 02:25:05,VALID,1009.39,VALID,0,VALID,97.2741,VALID,0,VALID,22.7004,VALID,86,VALID,0.336719,
2009-01-21, 02:26:04,VALID,1009.39,VALID,0,VALID,97.2589,VALID,0.105969,VALID,22.6792,VALID,86,VALID,0,
2009-01-21, 02:27:04,VALID,1009.41,VALID,0,VALID,97.2207,VALID,0,VALID,22.6792,VALID,86,VALID,0,
2009-01-21, 02:28:05,VALID,1009.36,VALID,0,VALID,97.2665,VALID,0.105969,VALID,22.6597,VALID,86,VALID,0,
2009-01-21, 02:29:05,VALID,1009.37,VALID,0,VALID,97.2436,VALID,0.105969,VALID,22.6597,VALID,86,VALID,0,
2009-01-21, 02:30:05,VALID,1009.37,VALID,0,VALID,97.2436,VALID,0.105969,VALID,22.6792,VALID,86,VALID,0,
2009-01-21, 02:31:05,VALID,1009.35,VALID,0,VALID,97.2589,VALID,0.105969,VALID,22.6792,VALID,85,VALID,0,
2009-01-21, 02:32:05,VALID,1009.32,VALID,0,VALID,97.2512,VALID,0.105969,VALID,22.6792,VALID,86,VALID,0,
2009-01-21, 02:33:05,VALID,1009.32,VALID,0,VALID,97.2436,VALID,0.105969,VALID,22.6402,VALID,86,VALID,0,
2009-01-21, 02:34:05,VALID,1009.36,VALID,0,VALID,97.2589,VALID,0.105969,VALID,22.6597,VALID,86,VALID,0,
2009-01-21, 02:35:05,VALID,1009.36,VALID,0,VALID,97.2665,VALID,0,VALID,22.6402,VALID,86,VALID,0,
2009-01-21, 02:36:05,VALID,1009.35,VALID,0,VALID,97.2512,VALID,0.105969,VALID,22.6208,VALID,85,VALID,0,
2009-01-21, 02:37:05,VALID,1009.34,VALID,0,VALID,97.2512,VALID,0.105969,VALID,22.6013,VALID,85,VALID,0,
2009-01-21, 02:38:05,VALID,1009.32,VALID,0,VALID,97.2665,VALID,0.105969,VALID,22.6225,VALID,86,VALID,0,
2009-01-21, 02:39:05,VALID,1009.32,VALID,0,VALID,97.2741,VALID,0.105969,VALID,22.6013,VALID,86,VALID,0,
2009-01-21, 02:40:05,VALID,1009.3,VALID,0,VALID,97.2894,VALID,0.105969,VALID,22.5818,VALID,86,VALID,0,
2009-01-21, 02:41:05,VALID,1009.32,VALID,0,VALID,97.2665,VALID,0,VALID,22.5623,VALID,85,VALID,0,
2009-01-21, 02:42:05,VALID,1009.31,VALID,0,VALID,97.2894,VALID,0.105969,VALID,22.5217,VALID,86,VALID,0,
2009-01-21, 02:43:05,VALID,1009.3,VALID,0,VALID,97.2817,VALID,0.105969,VALID,22.5623,VALID,85,VALID,0,
2009-01-21, 02:44:05,VALID,1009.3,VALID,0,VALID,97.3122,VALID,0.105969,VALID,22.5623,VALID,85,VALID,0,
2009-01-21, 02:45:05,VALID,1009.3,VALID,0,VALID,97.3504,VALID,0.105969,VALID,22.5623,VALID,86,VALID,0,
2009-01-21, 02:46:05,VALID,1009.24,VALID,0,VALID,97.3732,VALID,0,VALID,22.5429,VALID,86,VALID,0,
2009-01-21, 02:47:05,VALID,1009.24,VALID,0,VALID,97.4037,VALID,0,VALID,22.5446,VALID,85,VALID,0,
2009-01-21, 02:48:05,VALID,1009.23,VALID,0,VALID,97.419,VALID,0.105969,VALID,22.5234,VALID,86,VALID,0,
2009-01-21, 02:49:05,VALID,1009.24,VALID,0,VALID,97.3885,VALID,0.105969,VALID,22.4844,VALID,85,VALID,0,
2009-01-21, 02:50:05,VALID,1009.24,VALID,0,VALID,97.4266,VALID,0,VALID,22.4844,VALID,85,VALID,0,
2009-01-21, 02:51:05,VALID,1009.23,VALID,0,VALID,97.48,VALID,0,VALID,22.4844,VALID,85,VALID,0,
2009-01-21, 02:52:05,VALID,1009.19,VALID,0,VALID,97.5105,VALID,0,VALID,22.5039,VALID,86,VALID,0,
2009-01-21, 02:53:05,VALID,1009.2,VALID,0,VALID,97.5334,VALID,0.105969,VALID,22.5251,VALID,86,VALID,0,
2009-01-21, 02:54:05,VALID,1009.19,VALID,0,VALID,97.5181,VALID,0,VALID,22.5429,VALID,85,VALID,0,
2009-01-21, 02:55:05,VALID,1009.16,VALID,0,VALID,97.5334,VALID,0,VALID,22.5429,VALID,85,VALID,0,
2009-01-21, 02:56:05,VALID,1009.14,VALID,0,VALID,97.5715,VALID,0.105969,VALID,22.5429,VALID,75,VALID,0,
2009-01-21, 02:57:05,VALID,1009.13,VALID,0,VALID,97.5563,VALID,0,VALID,22.5429,VALID,75,VALID,0,
2009-01-21, 02:58:05,VALID,1009.16,VALID,0,VALID,97.5868,VALID,0,VALID,22.5039,VALID,75,VALID,0,
2009-01-21, 02:59:05,VALID,1009.15,VALID,0,VALID,97.602,VALID,0.105969,VALID,22.465,VALID,75,VALID,0,
2009-01-21, 03:00:05,VALID,1009.13,VALID,0,VALID,97.5639,VALID,0,VALID,22.4455,VALID,75,VALID,0,
2009-01-21, 03:01:05,VALID,1009.14,VALID,0,VALID,97.5715,VALID,0,VALID,22.4455,VALID,75,VALID,0,
2009-01-21, 03:02:05,VALID,1009.12,VALID,0,VALID,97.5715,VALID,0,VALID,22.4455,VALID,75,VALID,0,
2009-01-21, 03:03:05,VALID,1009.13,VALID,0,VALID,97.5639,VALID,0.105969,VALID,22.4065,VALID,75,VALID,0,
2009-01-21, 03:04:05,VALID,1009.15,VALID,0,VALID,97.5486,VALID,0.105969,VALID,22.4472,VALID,75,VALID,0,
2009-01-21, 03:05:05,VALID,1009.13,VALID,0,VALID,97.541,VALID,0,VALID,22.3887,VALID,75,VALID,0,
2009-01-21, 03:06:05,VALID,1009.13,VALID,0,VALID,97.541,VALID,0,VALID,22.3676,VALID,75,VALID,0,
2009-01-21, 03:07:05,VALID,1009.12,VALID,0,VALID,97.5791,VALID,0.105969,VALID,22.3481,VALID,75,VALID,0,
2009-01-21, 03:08:05,VALID,1009.11,VALID,0,VALID,97.5258,VALID,0.105969,VALID,22.3498,VALID,75,VALID,0,
2009-01-21, 03:09:05,VALID,1009.12,VALID,0,VALID,97.5486,VALID,0,VALID,22.2897,VALID,75,VALID,0,
2009-01-21, 03:10:05,VALID,1009.12,VALID,0,VALID,97.5563,VALID,0,VALID,22.2914,VALID,75,VALID,0,
2009-01-21, 03:11:05,VALID,1009.13,VALID,0,VALID,97.5639,VALID,0.105969,VALID,22.2507,VALID,75,VALID,0,
2009-01-21, 03:12:05,VALID,1009.12,VALID,0,VALID,97.5639,VALID,0,VALID,22.2524,VALID,75,VALID,0,
2009-01-21, 03:13:05,VALID,1009.14,VALID,0,VALID,97.5791,VALID,0.105969,VALID,22.2312,VALID,75,VALID,0,
2009-01-21, 03:14:05,VALID,1009.18,VALID,0,VALID,97.6173,VALID,0,VALID,22.2507,VALID,75,VALID,0,
2009-01-21, 03:15:05,VALID,1009.17,VALID,0,VALID,97.663,VALID,0,VALID,22.2507,VALID,75,VALID,0,
2009-01-21, 03:16:05,VALID,1009.21,VALID,0,VALID,97.663,VALID,0,VALID,22.2118,VALID,75,VALID,0,
2009-01-21, 03:17:05,VALID,1009.21,VALID,0,VALID,97.6859,VALID,0.105969,VALID,22.2118,VALID,75,VALID,0,
2009-01-21, 03:18:05,VALID,1009.23,VALID,0,VALID,97.6935,VALID,0,VALID,22.2118,VALID,75,VALID,0,
2009-01-21, 03:19:05,VALID,1009.27,VALID,0,VALID,97.724,VALID,0.105969,VALID,22.2507,VALID,75,VALID,0,
2009-01-21, 03:20:05,VALID,1009.27,VALID,0,VALID,97.7545,VALID,0,VALID,22.2312,VALID,75,VALID,0,
2009-01-21, 03:21:05,VALID,1009.29,VALID,0,VALID,97.7698,VALID,0,VALID,22.2507,VALID,75,VALID,0,
2009-01-21, 03:22:05,VALID,1009.26,VALID,0,VALID,97.7469,VALID,0.105969,VALID,22.2702,VALID,75,VALID,0,
2009-01-21, 03:23:05,VALID,1009.29,VALID,0,VALID,97.7622,VALID,0,VALID,22.2685,VALID,75,VALID,0,
2009-01-21, 03:24:05,VALID,1009.24,VALID,0,VALID,97.8079,VALID,0,VALID,22.3091,VALID,75,VALID,0,
2009-01-21, 03:25:05,VALID,1009.24,VALID,0,VALID,97.8079,VALID,0,VALID,22.3091,VALID,75,VALID,0,
2009-01-21, 03:26:05,VALID,1009.22,VALID,0,VALID,97.8079,VALID,0,VALID,22.2897,VALID,75,VALID,0,
2009-01-21, 03:27:05,VALID,1009.22,VALID,0,VALID,97.8308,VALID,0,VALID,22.2897,VALID,75,VALID,0,
2009-01-21, 03:28:05,VALID,1009.24,VALID,0,VALID,97.9299,VALID,0,VALID,22.3303,VALID,75,VALID,0,
2009-01-21, 03:29:05,VALID,1009.22,VALID,0,VALID,97.9757,VALID,0,VALID,22.3498,VALID,75,VALID,0,
2009-01-21, 03:30:05,VALID,1009.24,VALID,0,VALID,98.0519,VALID,0,VALID,22.3091,VALID,75,VALID,0,
2009-01-21, 03:31:05,VALID,1009.23,VALID,0,VALID,98.0596,VALID,0,VALID,22.3286,VALID,75,VALID,0,
2009-01-21, 03:32:05,VALID,1009.27,VALID,0,VALID,98.0443,VALID,0,VALID,22.2897,VALID,75,VALID,0,
2009-01-21, 03:33:05,VALID,1009.27,VALID,0,VALID,98.0367,VALID,0,VALID,22.3303,VALID,75,VALID,0,
2009-01-21, 03:34:05,VALID,1009.27,VALID,0,VALID,98.0214,VALID,0,VALID,22.2719,VALID,75,VALID,0,
2009-01-21, 03:35:05,VALID,1009.29,VALID,0,VALID,98.0214,VALID,0,VALID,22.2719,VALID,75,VALID,0,
2009-01-21, 03:36:05,VALID,1009.32,VALID,0,VALID,97.9833,VALID,0,VALID,22.2312,VALID,75,VALID,0,
2009-01-21, 03:37:05,VALID,1009.32,VALID,0,VALID,98.0519,VALID,0,VALID,22.2312,VALID,75,VALID,0,
2009-01-21, 03:38:05,VALID,1009.33,VALID,0,VALID,97.9986,VALID,0,VALID,22.2329,VALID,75,VALID,0,
2009-01-21, 03:39:05,VALID,1009.34,VALID,0,VALID,97.9757,VALID,0,VALID,22.2118,VALID,75,VALID,0,
2009-01-21, 03:40:05,VALID,1009.38,VALID,0,VALID,98.0062,VALID,0,VALID,22.2329,VALID,75,VALID,0,
2009-01-21, 03:41:05,VALID,1009.33,VALID,0,VALID,97.9986,VALID,0,VALID,22.2134,VALID,75,VALID,0,
2009-01-21, 03:42:05,VALID,1009.34,VALID,0,VALID,98.0824,VALID,0,VALID,22.2118,VALID,75,VALID,0,
2009-01-21, 03:43:05,VALID,1009.34,VALID,0,VALID,98.0901,VALID,0,VALID,22.2118,VALID,75,VALID,0,
2009-01-21, 03:44:05,VALID,1009.33,VALID,0,VALID,98.0824,VALID,0,VALID,22.2118,VALID,75,VALID,0,
2009-01-21, 03:45:05,VALID,1009.31,VALID,0,VALID,98.0748,VALID,0,VALID,22.1728,VALID,75,VALID,0,
2009-01-21, 03:46:05,VALID,1009.31,VALID,0,VALID,98.1053,VALID,0,VALID,22.1728,VALID,75,VALID,0,
2009-01-21, 03:47:05,VALID,1009.29,VALID,0,VALID,98.1206,VALID,0,VALID,22.194,VALID,75,VALID,0,
2009-01-21, 03:48:05,VALID,1009.26,VALID,0,VALID,98.1053,VALID,0,VALID,22.2134,VALID,75,VALID,0,
2009-01-21, 03:49:05,VALID,1009.25,VALID,0,VALID,98.1206,VALID,0,VALID,22.2134,VALID,75,VALID,0,
2009-01-21, 03:50:05,VALID,1009.23,VALID,0,VALID,98.1129,VALID,0,VALID,22.1923,VALID,75,VALID,0,
2009-01-21, 03:51:05,VALID,1009.25,VALID,0,VALID,98.1358,VALID,0,VALID,22.1728,VALID,75,VALID,0,
2009-01-21, 03:52:05,VALID,1009.27,VALID,0,VALID,98.1587,VALID,0,VALID,22.1533,VALID,75,VALID,0,